Regional Weather Roundup
Issued by NWS

Home | Current Version | Previous Version | Graphics & Text | Print | Product List | Glossary On
Versions: 1 2 3 4 5 6 7 8 9 10 11 12 13 14 15 16 17 18 19 20 21 22 23 24 25 26 27 28 29 30 31 32 33 34 35 36 37 38 39 40 41 42 43 44 45 46 47 48 49 50
000
ASUS43 KDTX 290610
RWRMI
MICHIGAN HOURLY REGIONAL WEATHER ROUNDUP
NATIONAL WEATHER SERVICE DETROIT/PONTIAC MI
200 AM EDT FRI JUL 29 2016

NOTE: "FAIR" INDICATES FEW OR NO CLOUDS BELOW 12,000 FEET WITH NO
SIGNIFICANT WEATHER AND/OR OBSTRUCTION TO VISIBILITY.

MIZ047>049-052>055-059>063-066>070-074>076-081>083-290700-
SOUTHEAST LOWER MICHIGAN

CITY           SKY/WX    TMP DP  RH WIND       PRES   REMARKS
ADRIAN         PTCLDY    68  67  96 NE5       29.95R
6HR MIN TEMP:  66; 6HR MAX TEMP:  81; 6HR PCP:  0.01;

ALMA           CLOUDY    69  67  91 N7        29.98S
ANN ARBOR      PTCLDY    71  58  63 NE5       29.94S
BAD AXE        CLOUDY    66  62  87 N3        29.98S
CARO           CLOUDY    66  63  91 N3        29.96S
DETROIT CITY   CLEAR     71  61  70 N7        29.93F
6HR MIN TEMP:  70; 6HR MAX TEMP:  79;

DETROIT        CLOUDY    72  55  55 N6        29.94S
6HR MIN TEMP:  72; 6HR MAX TEMP:  84;

FLINT          CLOUDY    72  61  68 CALM      29.96S
6HR MIN TEMP:  72; 6HR MAX TEMP:  83;

GROSSE ILE     PTCLDY    73  60  65 N5        29.92S
6HR MIN TEMP:  73; 6HR MAX TEMP:  80;

HILLSDALE      CLOUDY    66  63  90 E3        29.95S
6HR MIN TEMP:  59; 6HR MAX TEMP:  87;

HOWELL         CLOUDY    69  61  75 CALM      29.96F
6HR MIN TEMP:  69; 6HR MAX TEMP:  80;


CITY           SKY/WX    TMP DP  RH WIND       PRES   REMARKS
JACKSON        CLOUDY    69  67  93 NE7       29.95S
6HR MIN TEMP:  69; 6HR MAX TEMP:  80;

LAMBERTVILLE   CLOUDY    72  62  71 NE3       29.94R
6HR MIN TEMP:  71; 6HR MAX TEMP:  81;

LANSING        MOCLDY    68  61  78 CALM      29.96F
6HR MIN TEMP:  67; 6HR MAX TEMP:  75; 6HR PCP: TRACE;

LAPEER         FAIR      65  61  86 CALM      29.97R
6HR MIN TEMP:  64; 6HR MAX TEMP:  78;

MASON          CLOUDY    67  63  87 W5        29.96S
MONROE         CLEAR     67  63  86 W10       29.93R
6HR MIN TEMP:  66; 6HR MAX TEMP:  80;

PONTIAC        CLOUDY    70  60  70 NE6       29.95S
6HR MIN TEMP:  70; 6HR MAX TEMP:  80;

PORT HOPE        N/A     72  64  76 NE15      29.96F
6HR MIN TEMP:  71; 6HR MAX TEMP:  72;

PORT HURON     CLOUDY    64  64 100 W3        29.94S
TRI CITIES     CLOUDY    69  67  93 NE3       29.98S
6HR MIN TEMP:  69; 6HR MAX TEMP:  74;

MIDLAND        MOCLDY    68  61  80 CALM      29.97S
6HR MIN TEMP:  68; 6HR MAX TEMP:  73; 6HR PCP:  0.01;

TROY           PTCLDY    72  58  62 CALM      29.96S
SAGINAW HB     CLOUDY    66  63  88 N3        29.97S
$$
MIZ043>046-050>051-056>058-064>065-071>073-077>080-290700-
SOUTHWEST LOWER MICHIGAN

CITY           SKY/WX    TMP DP  RH WIND       PRES   REMARKS
BATTLE CREEK   CLOUDY    68  67  96 E7        29.95S
6HR MIN TEMP:  68; 6HR MAX TEMP:  75; 6HR PCP: TRACE;

BENTON HARBOR  CLEAR     68  63  84 E3        29.91F
6HR MIN TEMP:  68; 6HR MAX TEMP:  76;

BIG RAPIDS     LGT RAIN  67  65  92 E8        29.98S
6HR MIN TEMP:  67; 6HR MAX TEMP:  69;

COLDWATER      CLOUDY    70  66  87 E5        29.94S
6HR MIN TEMP:  69; 6HR MAX TEMP:  79;

FREMONT        MOCLDY    67  67 100 E7        29.96S
HOLLAND        CLOUDY    69  64  84 E6        29.94F
6HR MIN TEMP:  69; 6HR MAX TEMP:  75;

GRAND RAPIDS   CLOUDY    69  62  78 E7        29.95F
6HR MIN TEMP:  68; 6HR MAX TEMP:  71;

IONIA          FAIR      68  59  73 NE6       29.96R
6HR MIN TEMP:  68; 6HR MAX TEMP:  77;

KALAMAZOO      CLOUDY    70  66  87 VRB5      29.93S
6HR MIN TEMP:  69; 6HR MAX TEMP:  72;

LUDINGTON      LGT RAIN  67  64  91 N8        29.98R
6HR MIN TEMP:  66; 6HR MAX TEMP:  71;

MARSHALL       CLEAR     69  66  88 NE3       29.94S
6HR MIN TEMP:  69; 6HR MAX TEMP:  80;

MOUNT PLEASANT CLOUDY    68  62  81 NW3       29.99R
6HR MIN TEMP:  67; 6HR MAX TEMP:  76;

MUSKEGON       LGT RAIN  69  65  86 E5        29.95S
6HR MIN TEMP:  68; 6HR MAX TEMP:  72; 6HR PCP: TRACE;

SOUTH HAVEN    CLEAR     67  66  97 E3        29.92F
$$
MIZ016>042-290700-
NORTHERN LOWER MICHIGAN

CITY           SKY/WX    TMP DP  RH WIND       PRES   REMARKS
ALPENA         CLOUDY    64  60  87 NE5       30.01S
6HR MIN TEMP:  61; 6HR MAX TEMP:  76;

BEAVER ISLAND  PTCLDY    61  57  88 NE5       30.03S
6HR MIN TEMP:  61; 6HR MAX TEMP:  71;

BELLAIRE       CLOUDY    63  56  79 CALM      30.01S
6HR MIN TEMP:  62; 6HR MAX TEMP:  75;

CADILLAC       LGT RAIN  66  61  82 CALM      30.01R
CHARLEVOIX     PTCLDY    67  57  69 E3        30.04S
6HR MIN TEMP:  67; 6HR MAX TEMP:  74;

FRANKFORT      CLOUDY    67  62  83 NE5       30.00R
GAYLORD        PTCLDY    64  53  67 NE8       30.02F
6HR MIN TEMP:  64; 6HR MAX TEMP:  75;

GRAYLING       CLOUDY    64  58  79 CALM      30.02S
HARBOR SPRINGS MOCLDY    62  55  80 NE3       30.01F
HOUGHTON LAKE  LGT RAIN  65  58  78 NE5       30.01F
6HR MIN TEMP:  64; 6HR MAX TEMP:  73; 6HR PCP: TRACE;

MANISTEE       RAIN      66  64  93 E6        29.99R
OSCODA         CLOUDY    64  56  74 CALM      29.98S
6HR MIN TEMP:  62; 6HR MAX TEMP:  71;

PELLSTON       PTCLDY    56  54  93 CALM      30.03R
6HR MIN TEMP:  55; 6HR MAX TEMP:  77;

ROGERS CITY    CLOUDY    69  58  68 E10       30.03R
TRAVERSE CITY  LGT RAIN  69  60  73 NE7       29.99R
6HR MIN TEMP:  69; 6HR MAX TEMP:  76; 6HR PCP:  0.02;

$$
MIZ007>008-015-290700-
EASTERN UPPER MICHIGAN

CITY           SKY/WX    TMP DP  RH WIND       PRES   REMARKS
KINROSS        MOCLDY    63  55  75 E9        30.05S
6HR MIN TEMP:  60; 6HR MAX TEMP:  68;

MACKINAC ISLAN PTCLDY    61  58  91 NE8       30.03S
6HR MIN TEMP:  61; 6HR MAX TEMP:  72;

NEWBERRY       MOCLDY    55  55 100 VRB3      30.04S
S. S. MARIE    PTCLDY    64  53  67 E6        30.04S
6HR MIN TEMP:  61; 6HR MAX TEMP:  71;

MUNISING         N/A     62  58  86 NW7       30.05S
6HR MIN TEMP:  62; 6HR MAX TEMP:  66;

$$
MIZ004>006-011>014-085-290700-
CENTRAL UPPER MICHIGAN

CITY           SKY/WX    TMP DP  RH WIND       PRES   REMARKS
MANISTIQUE     CLOUDY    55  54  94 N8        30.03S
ESCANABA       CLOUDY    57  54  88 N5        30.03S
6HR MIN TEMP:  57; 6HR MAX TEMP:  70;

MENOMINEE      CLOUDY   N/A N/A N/A N6        30.04F
SAWYER-GWINN   CLOUDY    53  51  94 N6        30.08S
6HR MIN TEMP:  52; 6HR MAX TEMP:  61;

$$
MIZ001>003-009>011-084-290700-
WESTERN UPPER MICHIGAN

CITY           SKY/WX    TMP DP  RH WIND       PRES   REMARKS
IRON MOUNTAIN  CLEAR     52  48  86 N3        30.06S
6HR MIN TEMP:  52; 6HR MAX TEMP:  68;

HOUGHTON       CLEAR     54  50  86 N8        30.08F
6HR MIN TEMP:  50; 6HR MAX TEMP:  66;

COPPER HARBOR    N/A     57  54  89 CALM      30.08S
6HR MIN TEMP:  56; 6HR MAX TEMP:  67;

IRONWOOD       CLEAR     46  45  93 CALM      30.09S
6HR MIN TEMP:  46; 6HR MAX TEMP:  66;

$$

ABBREVIATIONS USED IN REMARKS
   TC - TEMPERATURE IN CELSIUS
  WCI - WIND CHILL INDEX
   HX - HEAT INDEX
  VSB - VISIBILITY





USA.gov is the U.S. government's official web portal to all federal, state and local government web resources and services.